| time (UTC) | temp C | wind direction | speed KPH | gust KPH | rain 1hr cm | rain 24hr cm | rain mn cm | humidity % | barometer mb |
| 20260506101224 | 17 | 360 | 3.2 | 4.8 | 0.00 | 0.03 | 0.00 | 76 | 1008.4 |
| 20260506095324 | 17 | 360 | 0.0 | 6.4 | 0.00 | 0.03 | 0.00 | 76 | 1008.4 |
| 20260506093424 | 17 | 360 | 3.2 | 6.4 | 0.00 | 0.03 | 0.00 | 75 | 1008.4 |
| 20260506091524 | 17 | 360 | 0.0 | 11.3 | 0.00 | 0.03 | 0.00 | 75 | 1008.5 |
| 20260506085624 | 18 | 360 | 0.0 | 9.7 | 0.00 | 0.03 | 0.00 | 74 | 1008.6 |
| 20260506083724 | 18 | 360 | 0.0 | 8.0 | 0.00 | 0.03 | 0.00 | 73 | 1008.7 |
| 20260506081824 | 18 | 360 | 0.0 | 9.7 | 0.00 | 0.03 | 0.00 | 71 | 1008.6 |
| 20260506072124 | 19 | 360 | 4.8 | 16.1 | 0.00 | 0.03 | 0.00 | 68 | 1008.7 |
| 20260506070224 | 19 | 360 | 4.8 | 16.1 | 0.00 | 0.03 | 0.00 | 67 | 1008.7 |
| 20260506062444 | 20 | 360 | 1.6 | 12.9 | 0.00 | 0.03 | 0.00 | 64 | 1008.9 |
| 20260506060523 | 20 | 360 | 4.8 | 12.9 | 0.00 | 0.03 | 0.00 | 64 | 1008.8 |
| 20260506050904 | 20 | 360 | 6.4 | 12.9 | 0.00 | 0.03 | 0.00 | 60 | 1009.4 |
| 20260506044924 | 21 | 360 | 1.6 | 12.9 | 0.00 | 0.03 | 0.00 | 59 | 1009.3 |
| 20260506043024 | 21 | 360 | 1.6 | 8.0 | 0.00 | 0.03 | 0.00 | 57 | 1009.3 |
| 20260506041123 | 21 | 360 | 1.6 | 12.9 | 0.00 | 0.03 | 0.00 | 57 | 1009.2 |
| 20260506035622 | 21 | 360 | 1.6 | 16.1 | 0.00 | 0.03 | 0.03 | 56 | 1009.2 |
| 20260506033722 | 21 | 360 | 6.4 | 14.5 | 0.00 | 0.03 | 0.03 | 56 | 1009.3 |
| 20260506031822 | 21 | 360 | 0.0 | 8.0 | 0.00 | 0.03 | 0.03 | 55 | 1009.2 |
| 20260506025922 | 22 | 360 | 3.2 | 14.5 | 0.00 | 0.03 | 0.03 | 54 | 1009.1 |
| 20260506024022 | 22 | 360 | 3.2 | 14.5 | 0.00 | 0.03 | 0.03 | 53 | 1009.1 |
| 20260506022123 | 22 | 360 | 4.8 | 17.7 | 0.00 | 0.03 | 0.03 | 52 | 1009.0 |
| 20260506020222 | 22 | 360 | 11.3 | 16.1 | 0.00 | 0.03 | 0.03 | 51 | 1008.8 |
| 20260506014323 | 23 | 360 | 6.4 | 16.1 | 0.00 | 0.03 | 0.03 | 47 | 1008.7 |
| 20260506012443 | 25 | 360 | 8.0 | 17.7 | 0.00 | 0.03 | 0.03 | 41 | 1008.3 |
| 20260506010526 | 25 | 360 | 3.2 | 14.5 | 0.00 | 0.03 | 0.03 | 39 | 1008.0 |
| 20260506004622 | 25 | 360 | 11.3 | 20.9 | 0.00 | 0.03 | 0.03 | 37 | 1007.8 |
| 20260506002722 | 26 | 360 | 4.8 | 17.7 | 0.00 | 0.03 | 0.03 | 34 | 1007.4 |
| 20260506000822 | 26 | 360 | 4.8 | 12.9 | 0.00 | 0.03 | 0.03 | 33 | 1007.3 |
| 20260505234922 | 26 | 360 | 1.6 | 16.1 | 0.00 | 0.03 | 0.03 | 32 | 1007.4 |
| 20260505233042 | 26 | 360 | 4.8 | 9.7 | 0.00 | 0.03 | 0.03 | 31 | 1007.1 |
| 20260505231123 | 27 | 360 | 1.6 | 14.5 | 0.00 | 0.03 | 0.03 | 29 | 1006.9 |
| 20260505225223 | 27 | 360 | 4.8 | 24.1 | 0.00 | 0.03 | 0.03 | 29 | 1006.6 |
| 20260505223322 | 27 | 360 | 1.6 | 17.7 | 0.00 | 0.03 | 0.03 | 29 | 1006.4 |
| 20260505221422 | 27 | 360 | 4.8 | 20.9 | 0.00 | 0.03 | 0.03 | 29 | 1006.2 |
| 20260505215523 | 27 | 360 | 8.0 | 25.7 | 0.00 | 0.03 | 0.03 | 29 | 1006.4 |
| 20260505213622 | 28 | 360 | 24.1 | 24.1 | 0.00 | 0.03 | 0.03 | 28 | 1006.0 |
| 20260505211722 | 28 | 360 | 14.5 | 25.7 | 0.00 | 0.03 | 0.03 | 29 | 1005.7 |
| 20260505205822 | 28 | 360 | 4.8 | 27.4 | 0.00 | 0.03 | 0.03 | 29 | 1005.7 |
| 20260505203922 | 28 | 360 | 4.8 | 16.1 | 0.00 | 0.03 | 0.03 | 28 | 1005.9 |
| 20260505202022 | 28 | 360 | 6.4 | 35.4 | 0.00 | 0.03 | 0.03 | 29 | 1006.1 |
| 20260505200122 | 28 | 360 | 12.9 | 22.5 | 0.00 | 0.03 | 0.03 | 28 | 1006.2 |
| 20260505194222 | 29 | 360 | 4.8 | 29.0 | 0.00 | 0.03 | 0.03 | 29 | 1006.5 |
| 20260505192322 | 28 | 360 | 4.8 | 24.1 | 0.00 | 0.03 | 0.03 | 30 | 1006.8 |
| 20260505190423 | 28 | 360 | 4.8 | 19.3 | 0.00 | 0.03 | 0.03 | 33 | 1006.9 |
| 20260505184522 | 28 | 360 | 4.8 | 27.4 | 0.00 | 0.03 | 0.03 | 33 | 1007.2 |
| 20260505182642 | 29 | 360 | 6.4 | 24.1 | 0.00 | 0.03 | 0.03 | 32 | 1007.2 |
| 20260505180723 | 28 | 360 | 9.7 | 24.1 | 0.00 | 0.03 | 0.03 | 35 | 1007.4 |
| 20260505174822 | 28 | 360 | 8.0 | 20.9 | 0.00 | 0.03 | 0.03 | 38 | 1007.7 |
| 20260505172922 | 28 | 360 | 4.8 | 22.5 | 0.00 | 0.03 | 0.03 | 37 | 1007.9 |
| 20260505171022 | 27 | 360 | 3.2 | 17.7 | 0.00 | 0.03 | 0.03 | 40 | 1008.0 |
| 20260505165142 | 26 | 360 | 9.7 | 16.1 | 0.00 | 0.03 | 0.03 | 41 | 1008.4 |
| 20260505163222 | 26 | 360 | 4.8 | 16.1 | 0.00 | 0.03 | 0.03 | 43 | 1008.7 |
| 20260505161322 | 26 | 360 | 4.8 | 16.1 | 0.00 | 0.03 | 0.03 | 42 | 1009.0 |
| 20260505151622 | 24 | 360 | 12.9 | 16.1 | 0.00 | 0.03 | 0.03 | 46 | 1009.6 |
| 20260505124422 | 17 | 360 | 0.0 | 4.8 | 0.00 | 0.03 | 0.03 | 74 | 1009.8 |
| 20260505122522 | 15 | 360 | 0.0 | 8.0 | 0.00 | 0.03 | 0.03 | 80 | 1010.1 |
| 20260505120642 | 13 | 360 | 4.8 | 8.0 | 0.00 | 0.03 | 0.03 | 82 | 1010.2 |
| 20260505114722 | 13 | 360 | 0.0 | 0.0 | 0.00 | 0.03 | 0.03 | 82 | 1010.0 |
| 20260505112822 | 12 | 360 | 0.0 | 1.6 | 0.00 | 0.03 | 0.03 | 82 | 1009.9 |
| 20260505110922 | 12 | 360 | 1.6 | 1.6 | 0.00 | 0.00 | 0.00 | 82 | 1010.1 |